Regional Weather Roundup
Issued by NWS Upton, NY

Current Version | Previous Version | Text Only | Print | Product List | Glossary On
Versions: 1 2 3 4 5 6 7 8 9 10 11 12 13 14 15 16 17 18 19 20 21 22 23 24 25 26 27 28 29 30 31 32 33 34 35 36 37 38 39 40 41 42 43 44 45 46 47 48 49 50
914
ASUS41 KOKX 222209
RWROKX

REGIONAL WEATHER ROUNDUP
NATIONAL WEATHER SERVICE NEW YORK NY
600 PM EDT SAT JUL 22 2017

NOTE: "FAIR" INDICATES FEW OR NO CLOUDS BELOW 12,000 FEET WITH NO
SIGNIFICANT WEATHER AND/OR OBSTRUCTIONS TO VISIBILITY.

NYZ071-072-176-178-NJZ106-104-222300-
NEW YORK CITY METRO AREA

CITY           SKY/WX    TMP DP  RH WIND       PRES   REMARKS
Central Park   PTSUNNY   84  64  50 VRB5      29.81R
Bronx Bot Gard   N/A     82  63  51 SE2       29.80R
LaGuardia APRT PTSUNNY   87  64  46 VRB5      29.76F
Kennedy INTL   CLOUDY    83  67  58 SE9       29.79S
Breezy Point     N/A     77 N/A N/A S7          N/A
Newark/Liberty CLOUDY    86  64  47 SE5       29.76F
Teterboro      CLOUDY    88  60  38 E5        29.75F
$$

NYZ177-179-078>081-222300-
LONG ISLAND NEW YORK

CITY           SKY/WX    TMP DP  RH WIND       PRES   REMARKS
Jones Beach      N/A     79 N/A N/A S7          N/A
Matinecock PT    N/A     81 N/A N/A E5          N/A
Farmingdale    PTSUNNY   84  61  45 S8        29.79S
MacArthur/ISP  CLOUDY    83  63  50 S7        29.78F
Shirley        PTSUNNY   84  67  56 VRB3      29.79F
Mt Sinai Harb    N/A     82 N/A N/A E3          N/A
Westhampton    CLOUDY    80  66  62 S5        29.80F
East Hampton   FAIR      76  65  67 S3        29.80S
Montauk          N/A     77  66  68 S5        29.81F
$$

NYZ052-065-067-222300-
HUDSON VALLEY

CITY           SKY/WX    TMP DP  RH WIND       PRES   REMARKS
White Plains   NOT AVBL
Larchmont Harb   N/A     77 N/A N/A N7          N/A
Croton O-T Hud   N/A     82 N/A N/A E1          N/A
Newburgh       PTSUNNY   82  63  51 CALM      29.81F
Montgomery     CLOUDY    81  70  69 CALM      29.80S
Poughkeepsie   CLOUDY    80  64  58 CALM      29.78F
Albany         LGT RAIN  74  63  68 W3        29.81F
$$

NJZ001-105-106-008-010-013-015-019>022-104-222300-
NEW JERSEY

CITY           SKY/WX    TMP DP  RH WIND       PRES   REMARKS
Newark/Liberty CLOUDY    86  64  47 SE5       29.76F
Teterboro      CLOUDY    88  60  38 E5        29.75F
Caldwell       CLOUDY    86  63  45 NE3       29.78S
Somerville     CLOUDY    83  73  72 CALM      29.75S
Linden         NOT AVBL
Perth Amboy      N/A     82 N/A N/A SE10        N/A
Sussex         CLOUDY    80  72  76 CALM      29.79F
Andover          N/A     78  69  73 CALM      29.79F
Trenton        CLOUDY    86  70  58 E6        29.74F HX  90
Millville      CLOUDY    85  77  77 VRB5      29.76F HX  95
Atlantic City  CLOUDY    86  77  74 S8        29.77F HX  97
Wrightstown    NOT AVBL
Toms River     CLOUDY    82  72  71 S5        29.77F
Belmar         MOSUNNY   81  72  74 E8        29.78F
$$

PAZ047>061-062-071-222300-
EASTERN PENNSYLVANIA

CITY           SKY/WX    TMP DP  RH WIND       PRES   REMARKS
Philadelphia   CLOUDY    90  67  46 S12       29.74F HX  93
Allentown      LGT RAIN  80  72  76 CALM      29.76F
Scranton       CLOUDY    79  69  71 E3        29.79F
$$

CTZ002-004>006-009-010-012-RIZ004-006-007-MAZ004-011-015-222300-
SOUTHERN NEW ENGLAND
 IN CT

CITY           SKY/WX    TMP DP  RH WIND       PRES   REMARKS
Bradley INTL   CLOUDY    81  66  60 NW6       29.80S
Hartford       CLOUDY    85  63  47 W6        29.78S
Danbury        CLOUDY    79  68  69 CALM      29.82S
Wtrbury/Oxford PTSUNNY   81  64  57 CALM      29.83F
Bridgeport     CLOUDY    81  66  60 E5        29.79F
Meriden        CLOUDY    80  68  66 CALM      29.79S
New Haven      CLOUDY    80  67  64 SE5       29.80S
Chester        FAIR      79  66  65 SE3       29.81F
Groton         CLOUDY    78  64  61 S3        29.79F
Wilimantic     CLOUDY    83  66  56 VRB3      29.80F

 IN RI

CITY           SKY/WX    TMP DP  RH WIND       PRES   REMARKS
Providence     CLOUDY    80  66  62 S7        29.80F
Block Island   MOSUNNY   76  66  71 S5        29.81F
Westerly       CLOUDY    80  62  54 S6        29.81F
 IN MA

CITY           SKY/WX    TMP DP  RH WIND       PRES   REMARKS
Boston         CLOUDY    76  65  68 E5        29.79F
Worcester      CLOUDY    76  63  64 W5        29.84S
Westfield      CLOUDY    81  60  48 NW7       29.80F
Provincetown   CLOUDY    77  65  66 S7        29.81S
Nantucket      CLOUDY    72  65  78 SE6       29.81F
$$

ANZ330-335-338-340-345-350-353-355-222300-
COASTAL MARINE OBSERVATIONS


STATION/POSITION TIME  SKY/WX   TEMP    WIND        PRES    VSBY  WAVE
                                AIR SEA DIR/SP/G                  HT/PER
                 (UTC)          (F)     (DEG/KT/KT) (MB)    (MI)  (FT/S)
NY HARB ENTRANCE 2050            79 78  150/  8/ 10 1008.2          2/ 5
20 S FIRE ISLAND 2150            79 79  140/  6/  8 1008.2          2/ 8
GREAT SOUTH BAY  2130            80 85  170/  2/  2   N/A
23 SSW MONTAUK P 2150            78 79              1009.2          2/ 7
15 E BARNEGAT LI 2130               80                N/A           2/ 9
HUDSON CANYON    2150            81 82  180/  4/  6 1007.9          3/ 6
KINGS POINT      2130            84 78   70/  5/  7 1008.2
EXECUTION ROCKS  2145            78      70/  6/ 10   N/A
CENTRAL LI SOUND 2115            79     110/  6/  6   N/A           0
EASTERN LI SOUND NOT AVBL
ROBBINS REEF     2130                   160/ 15/ 15 1009.0
$$


>>>>>>>>>>>>>>>>>>>>>>>>>>>> KEY <<<<<<<<<<<<<<<<<<<<<<<<<<<
>                                                          <
>     SKY/WX - Sky Condition/Present Weather               <
>     TMP    - Temperature in Fahrenheit                   <
>     DP     - Dew Point in Fahrenheit                     <
>     RH     - Relative Humidity in Percent                <
>     WIND   - Direction (from) and Speed in MPH           <
>     PRES   - Mean Sea Level Pressure (inches of Hg)      <
>     WCI    - Wind Chill Index                            <
>     VSB    - VISIBILITY IN MILES                         <
>     HX     - HEAT INDEX                                  <
>     TC     - TEMPERATURE IN CELSIUS                      <
>     VRB    - VARIABLE WIND DIRECTION                     <
>                                                          <
>>>>>>>>>>>>>>>>>>>>>>>>>>>> KEY <<<<<<<<<<<<<<<<<<<<<<<<<<<




USA.gov is the U.S. government's official web portal to all federal, state and local government web resources and services.